DW6610 Weather Reports


Display with metric or nautical units.
time (UTC)temp
F
wind
direction
speed
MPH
gust
MPH
rain 1hr
in
rain 24hr
in
rain mn
in
humidity
%
barometer
mb
20260905201602 102 132 2.0 5.0 0.00 0.00 0.00 49 1012.9
20260905201051 101 104 1.0 5.0 0.00 0.00 0.00 49 1012.9
20260905200551 101 204 1.0 5.0 0.00 0.00 0.00 51 1012.8
20260905200130 99 192 1.0 5.0 0.00 0.00 0.00 51 1012.9
20260905195551 99 106 2.0 7.0 0.00 0.00 0.00 51 1012.9
20260905195051 99 81 2.0 7.0 0.00 0.00 0.00 50 1013.0
20260905194601 100 159 3.0 10.0 0.00 0.00 0.00 49 1013.1
20260905194053 102 164 4.0 10.0 0.00 0.00 0.00 46 1013.1
20260905193550 103 129 2.0 10.0 0.00 0.00 0.00 44 1013.1
20260905193108 104 156 1.0 5.0 0.00 0.00 0.00 44 1013.2
20260905192552 104 98 1.0 4.0 0.00 0.00 0.00 45 1013.2
20260905192052 103 118 1.0 4.0 0.00 0.00 0.00 44 1013.4
20260905191601 103 119 1.0 4.0 0.00 0.00 0.00 47 1013.4
20260905191051 103 136 1.0 5.0 0.00 0.00 0.00 45 1013.5
20260905190552 103 333 2.0 5.0 0.00 0.00 0.00 45 1013.6
20260905190105 103 79 1.0 5.0 0.00 0.00 0.00 49 1013.6
20260905185550 102 150 2.0 7.0 0.00 0.00 0.00 46 1013.6
20260905185051 102 129 2.0 7.0 0.00 0.00 0.00 50 1013.7
20260905184611 101 176 2.0 7.0 0.00 0.00 0.00 48 1013.7
20260905184053 101 87 2.0 6.0 0.00 0.00 0.00 51 1013.7
20260905183552 101 221 1.0 8.0 0.00 0.00 0.00 49 1013.9
20260905183102 101 118 1.0 8.0 0.00 0.00 0.00 50 1014.0
20260905182551 102 122 2.0 8.0 0.00 0.00 0.00 47 1014.1
20260905182052 103 203 2.0 5.0 0.00 0.00 0.00 48 1014.0
20260905181607 103 167 1.0 3.0 0.00 0.00 0.00 48 1014.0
20260905181051 102 75 0.0 3.0 0.00 0.00 0.00 52 1014.0
20260905180552 102 0 1.0 3.0 0.00 0.00 0.00 49 1014.1
20260905180106 103 96 0.0 2.0 0.00 0.00 0.00 48 1014.2
20260905175554 102 86 1.0 5.0 0.00 0.00 0.00 50 1014.2
20260905175052 102 115 1.0 5.0 0.00 0.00 0.00 48 1014.4
20260905174606 103 101 2.0 4.0 0.00 0.00 0.00 47 1014.3
20260905174051 102 66 2.0 4.0 0.00 0.00 0.00 49 1014.3
20260905173551 102 89 0.0 5.0 0.00 0.00 0.00 52 1014.4
20260905173104 102 188 1.0 5.0 0.00 0.00 0.00 50 1014.3
20260905172551 102 103 1.0 6.0 0.00 0.00 0.00 55 1014.4
20260905172051 101 235 2.0 6.0 0.00 0.00 0.00 51 1014.4
20260905171601 101 108 1.0 6.0 0.00 0.00 0.00 51 1014.5
20260905171052 101 346 1.0 5.0 0.00 0.00 0.00 51 1014.7
20260905170552 101 204 1.0 5.0 0.00 0.00 0.00 52 1014.7
20260905170104 100 96 2.0 5.0 0.00 0.00 0.00 52 1014.7
20260905165551 101 123 0.0 4.0 0.00 0.00 0.00 53 1014.8
20260905165051 100 135 1.0 4.0 0.00 0.00 0.00 54 1014.9
20260905164606 100 129 1.0 4.0 0.00 0.00 0.00 50 1014.9
20260905164055 100 143 1.0 4.0 0.00 0.00 0.00 51 1015.0
20260905163551 100 32 1.0 4.0 0.00 0.00 0.00 52 1015.1
20260905163108 100 130 1.0 4.0 0.00 0.00 0.00 55 1015.1
20260905162551 100 98 1.0 4.0 0.00 0.00 0.00 54 1015.2
20260905162052 99 101 0.0 5.0 0.00 0.00 0.00 59 1015.1
20260905161606 98 115 2.0 5.0 0.00 0.00 0.00 56 1015.3
20260905161052 99 122 1.0 4.0 0.00 0.00 0.00 59 1015.3
20260905160551 98 103 1.0 4.0 0.00 0.00 0.00 60 1015.4
20260905160106 98 122 1.0 4.0 0.00 0.00 0.00 55 1015.5
20260905155552 98 121 1.0 4.0 0.00 0.00 0.00 60 1015.5
20260905155051 97 175 1.0 3.0 0.00 0.00 0.00 62 1015.5
20260905154606 96 123 1.0 3.0 0.00 0.00 0.00 62 1015.4
20260905154053 97 152 1.0 3.0 0.00 0.00 0.00 63 1015.4
20260905153555 97 136 0.0 3.0 0.00 0.00 0.00 61 1015.4
20260905153104 97 93 1.0 3.0 0.00 0.00 0.00 64 1015.4
20260905152552 96 97 0.0 3.0 0.00 0.00 0.00 63 1015.5
20260905152051 96 0 1.0 3.0 0.00 0.00 0.00 62 1015.5
20260905151636 96 0 0.0 2.0 0.00 0.00 0.00 64 1015.6
20260905151052 96 84 0.0 2.0 0.00 0.00 0.00 63 1015.6
20260905150551 95 157 0.0 2.0 0.00 0.00 0.00 64 1015.5
20260905150109 95 160 0.0 3.0 0.00 0.00 0.00 67 1015.6
20260905145553 95 0 0.0 3.0 0.00 0.00 0.00 68 1015.6
20260905145053 94 117 0.0 1.0 0.00 0.00 0.00 65 1015.6
20260905144605 94 0 0.0 1.0 0.00 0.00 0.00 68 1015.5
20260905144051 93 0 0.0 2.0 0.00 0.00 0.00 69 1015.3
20260905143552 93 136 0.0 3.0 0.00 0.00 0.00 71 1015.3
20260905143104 92 131 0.0 3.0 0.00 0.00 0.00 70 1015.4
20260905142555 92 0 0.0 3.0 0.00 0.00 0.00 67 1015.4
20260905142051 91 105 0.0 3.0 0.00 0.00 0.00 71 1015.5
20260905141601 90 108 1.0 3.0 0.00 0.00 0.00 71 1015.5
20260905141050 91 109 0.0 3.0 0.00 0.00 0.00 72 1015.5
20260905140551 90 93 0.0 1.0 0.00 0.00 0.00 73 1015.5
20260905140105 90 72 0.0 2.0 0.00 0.00 0.00 73 1015.4
20260905135551 89 0 0.0 2.0 0.00 0.00 0.00 73 1015.3
20260905135052 89 72 0.0 1.0 0.00 0.00 0.00 75 1015.3
20260905134607 88 72 0.0 1.0 0.00 0.00 0.00 75 1015.3
20260905134055 87 82 0.0 1.0 0.00 0.00 0.00 77 1015.3
20260905133552 86 0 0.0 1.0 0.00 0.00 0.00 77 1015.3
20260905133103 85 0 0.0 1.0 0.00 0.00 0.00 80 1015.3
20260905132551 84 81 0.0 1.0 0.00 0.00 0.00 80 1015.3
20260905132051 84 0 0.0 2.0 0.00 0.00 0.00 84 1015.2
20260905131609 82 0 0.0 2.0 0.00 0.00 0.00 85 1015.3
20260905131052 81 77 0.0 3.0 0.00 0.00 0.00 86 1015.4
20260905130551 80 58 0.0 3.0 0.00 0.00 0.00 88 1015.2
20260905130104 79 81 1.0 3.0 0.00 0.00 0.00 89 1015.2
20260905125551 78 51 0.0 2.0 0.00 0.00 0.00 90 1015.1
20260905125054 78 76 0.0 2.0 0.00 0.00 0.00 91 1015.2
20260905124601 77 76 0.0 2.0 0.00 0.00 0.00 92 1015.2
20260905124052 77 0 0.0 1.0 0.00 0.00 0.00 93 1015.2
20260905123552 76 0 0.0 0.0 0.00 0.00 0.00 93 1015.3
20260905123113 76 0 0.0 0.0 0.00 0.00 0.00 94 1015.1
20260905122554 76 0 0.0 1.0 0.00 0.00 0.00 94 1015.1
20260905122052 76 0 0.0 1.0 0.00 0.00 0.00 94 1015.1
20260905121559 76 0 0.0 1.0 0.00 0.00 0.00 94 1015.0
20260905121052 76 82 0.0 1.0 0.00 0.00 0.00 94 1014.9
20260905120554 76 0 0.0 1.0 0.00 0.00 0.00 94 1014.9
20260905120105 75 0 0.0 1.0 0.00 0.00 0.00 94 1014.9
20260905115551 75 0 0.0 1.0 0.00 0.00 0.00 94 1014.9
20260905115052 75 0 0.0 1.0 0.00 0.00 0.00 94 1014.9
20260905114600 75 0 0.0 2.0 0.00 0.00 0.00 95 1014.9
20260905114051 75 79 0.0 2.0 0.00 0.00 0.00 95 1014.8
20260905113552 75 47 0.0 1.0 0.00 0.00 0.00 95 1014.9
20260905113107 75 79 0.0 1.0 0.00 0.00 0.00 95 1014.8
20260905112555 75 0 0.0 1.0 0.00 0.00 0.00 95 1014.6
20260905112053 75 0 0.0 1.0 0.00 0.00 0.00 96 1014.5
20260905111604 75 0 0.0 1.0 0.00 0.00 0.00 96 1014.6
20260905111052 75 0 0.0 1.0 0.00 0.00 0.00 96 1014.6
20260905110555 75 0 0.0 1.0 0.00 0.00 0.00 96 1014.6
20260905110100 75 0 0.0 0.0 0.00 0.00 0.00 96 1014.6
20260905105551 75 0 0.0 0.0 0.00 0.00 0.00 96 1014.4
20260905105052 75 0 0.0 1.0 0.00 0.00 0.00 96 1014.5
20260905104600 75 0 0.0 1.0 0.00 0.00 0.00 96 1014.5
20260905104051 75 0 0.0 1.0 0.00 0.00 0.00 96 1014.4
20260905103551 75 0 0.0 0.0 0.00 0.00 0.00 96 1014.5
20260905103106 75 0 0.0 0.0 0.00 0.00 0.00 96 1014.4
20260905102554 75 0 0.0 0.0 0.00 0.00 0.00 95 1014.4
20260905102051 75 0 0.0 1.0 0.00 0.00 0.00 95 1014.3
20260905101606 75 0 0.0 1.0 0.00 0.00 0.00 95 1014.3
20260905101051 75 0 0.0 0.0 0.00 0.00 0.00 95 1014.3
20260905100552 75 0 0.0 0.0 0.00 0.00 0.00 95 1014.3
20260905100109 75 0 0.0 0.0 0.00 0.00 0.00 95 1014.4
20260905095552 75 0 0.0 0.0 0.00 0.00 0.00 95 1014.3
20260905095051 75 0 0.0 0.0 0.00 0.00 0.00 94 1014.3
20260905094603 76 0 0.0 0.0 0.00 0.00 0.00 94 1014.3
20260905094051 76 0 0.0 0.0 0.00 0.00 0.00 94 1014.4
20260905093552 76 0 0.0 0.0 0.00 0.00 0.00 94 1014.4
20260905093105 76 0 0.0 1.0 0.00 0.00 0.00 94 1014.2
20260905092552 76 0 0.0 1.0 0.00 0.00 0.00 94 1014.2
20260905092052 76 77 0.0 1.0 0.00 0.00 0.00 94 1014.2
20260905091604 76 0 0.0 1.0 0.00 0.00 0.00 94 1014.3
20260905091052 76 0 0.0 0.0 0.00 0.00 0.00 94 1014.3
20260905090551 76 0 0.0 0.0 0.00 0.00 0.00 94 1014.3
20260905090100 76 0 0.0 0.0 0.00 0.00 0.00 94 1014.3
20260905085553 76 0 0.0 0.0 0.00 0.00 0.00 93 1014.3
20260905085051 76 0 0.0 0.0 0.00 0.00 0.00 93 1014.3
20260905084611 76 0 0.0 0.0 0.00 0.00 0.00 93 1014.3
20260905084052 76 0 0.0 0.0 0.00 0.00 0.00 93 1014.2
20260905083554 77 0 0.0 1.0 0.00 0.00 0.00 93 1014.2
20260905083100 77 0 0.0 1.0 0.00 0.00 0.00 93 1014.2
20260905082551 77 0 0.0 1.0 0.00 0.00 0.00 93 1014.2
20260905082051 77 0 0.0 0.0 0.00 0.00 0.00 93 1014.3
20260905081603 77 0 0.0 0.0 0.00 0.00 0.00 93 1014.4
20260905081051 77 0 0.0 0.0 0.00 0.00 0.00 92 1014.5
20260905080551 77 0 0.0 0.0 0.00 0.00 0.00 92 1014.5
20260905080140 77 0 0.0 0.0 0.00 0.00 0.00 92 1014.4
20260905075550 77 0 0.0 0.0 0.00 0.00 0.00 92 1014.5
20260905075051 77 0 0.0 0.0 0.00 0.00 0.00 92 1014.5
20260905074603 77 0 0.0 0.0 0.00 0.00 0.00 92 1014.4
20260905074052 77 0 0.0 0.0 0.00 0.00 0.00 92 1014.4
20260905073551 77 0 0.0 1.0 0.00 0.00 0.00 92 1014.4
20260905073105 77 0 0.0 1.0 0.00 0.00 0.00 91 1014.4
20260905072554 78 0 0.0 1.0 0.00 0.00 0.00 91 1014.4
20260905072051 78 0 0.0 0.0 0.00 0.00 0.00 91 1014.4
20260905071605 78 0 0.0 0.0 0.00 0.00 0.00 90 1014.4
20260905071051 78 0 0.0 0.0 0.00 0.00 0.00 90 1014.4
20260905070555 78 0 0.0 0.0 0.00 0.00 0.00 89 1014.5
20260905070106 78 0 0.0 0.0 0.00 0.00 0.00 89 1014.5
20260905065553 78 0 0.0 0.0 0.00 0.00 0.00 89 1014.4
20260905065051 78 0 0.0 0.0 0.00 0.00 0.00 89 1014.5
20260905064605 79 0 0.0 0.0 0.00 0.00 0.00 89 1014.4
20260905064052 79 0 0.0 0.0 0.00 0.00 0.00 88 1014.4
20260905063551 79 0 0.0 0.0 0.00 0.00 0.00 89 1014.5
20260905063102 79 0 0.0 0.0 0.00 0.00 0.00 89 1014.6
20260905062551 79 0 0.0 0.0 0.00 0.00 0.00 87 1014.5
20260905062051 79 0 0.0 0.0 0.00 0.00 0.00 87 1014.4
20260905061609 79 0 0.0 0.0 0.00 0.00 0.00 86 1014.4
20260905061052 79 0 0.0 0.0 0.00 0.00 0.00 85 1014.4
20260905060551 80 0 0.0 0.0 0.00 0.00 0.00 84 1014.4
20260905060109 80 0 0.0 0.0 0.00 0.00 0.00 83 1014.5
20260905055553 80 0 0.0 0.0 0.00 0.00 0.00 83 1014.5
20260905055056 80 0 0.0 0.0 0.00 0.00 0.00 83 1014.5
20260905054616 80 0 0.0 0.0 0.00 0.00 0.00 82 1014.4
20260905054052 80 0 0.0 0.0 0.00 0.00 0.00 83 1014.4
20260905053555 80 0 0.0 0.0 0.00 0.00 0.00 82 1014.5
20260905053117 80 0 0.0 0.0 0.00 0.00 0.00 82 1014.5
20260905052556 80 0 0.0 0.0 0.00 0.00 0.00 81 1014.4
20260905052051 81 0 0.0 0.0 0.00 0.00 0.00 81 1014.6
20260905051601 81 0 0.0 0.0 0.00 0.00 0.00 80 1014.5
20260905051051 81 0 0.0 0.0 0.00 0.00 0.00 80 1014.5
20260905050551 81 0 0.0 0.0 0.00 0.00 0.00 80 1014.6
20260905050106 81 0 0.0 0.0 0.00 0.00 0.00 80 1014.5
20260905045551 81 0 0.0 0.0 0.00 0.00 0.00 79 1014.5
20260905045052 81 0 0.0 0.0 0.00 0.00 0.00 79 1014.5
20260905044607 82 0 0.0 1.0 0.00 0.00 0.00 79 1014.6
20260905044052 82 0 0.0 1.0 0.00 0.00 0.00 78 1014.6
20260905043551 82 0 0.0 1.0 0.00 0.00 0.00 78 1014.7
20260905043114 82 0 0.0 0.0 0.00 0.00 0.00 78 1014.7
20260905042552 82 89 0.0 0.0 0.00 0.00 0.00 79 1014.6
20260905042052 82 0 0.0 0.0 0.00 0.00 0.00 78 1014.6
20260905041603 82 0 0.0 0.0 0.00 0.00 0.00 78 1014.6
20260905041055 83 0 0.0 1.0 0.00 0.00 0.00 78 1014.6
20260905040551 83 0 0.0 1.0 0.00 0.00 0.00 78 1014.7
20260905040146 83 89 0.0 1.0 0.00 0.00 0.00 77 1014.7
20260905035552 83 0 0.0 1.0 0.00 0.00 0.00 77 1014.6
20260905035052 83 0 0.0 1.0 0.00 0.00 0.00 78 1014.6
20260905034602 84 0 0.0 1.0 0.00 0.00 0.00 78 1014.6
20260905034051 84 89 0.0 1.0 0.00 0.00 0.00 77 1014.6
20260905033551 84 89 0.0 1.0 0.00 0.00 0.00 76 1014.6
20260905033101 84 0 0.0 1.0 0.00 0.00 0.00 75 1014.6
20260905032555 85 0 0.0 1.0 0.00 0.00 0.00 73 1014.7
20260905032051 85 0 0.0 1.0 0.00 0.00 0.00 73 1014.6
20260905031604 85 0 0.0 1.0 0.00 0.00 0.00 72 1014.7
20260905031054 85 0 0.0 1.0 0.00 0.00 0.00 72 1014.7
20260905030551 86 89 0.0 2.0 0.00 0.00 0.00 71 1014.7
20260905025552 86 96 0.0 1.0 0.00 0.00 0.00 71 1014.8
20260905025051 86 0 0.0 1.0 0.00 0.00 0.00 71 1014.7
20260905024601 86 0 0.0 1.0 0.00 0.00 0.00 71 1014.6
20260905024051 86 0 0.0 1.0 0.00 0.00 0.00 70 1014.6
20260905023551 87 0 0.0 1.0 0.00 0.00 0.00 69 1014.5
20260905023102 87 92 0.0 1.0 0.00 0.00 0.00 69 1014.5
20260905022552 87 0 0.0 2.0 0.00 0.00 0.00 68 1014.6
20260905022054 87 0 0.0 2.0 0.00 0.00 0.00 68 1014.5
20260905021600 87 0 0.0 1.0 0.00 0.00 0.00 68 1014.6
20260905021054 88 88 0.0 3.0 0.00 0.00 0.00 68 1014.5
20260905020554 88 0 0.0 3.0 0.00 0.00 0.00 67 1014.4
20260905020100 87 52 0.0 3.0 0.00 0.00 0.00 68 1014.4
20260905015552 87 0 0.0 3.0 0.00 0.00 0.00 69 1014.4
20260905015052 86 236 0.0 1.0 0.00 0.00 0.00 70 1014.4
20260905014602 86 76 0.0 1.0 0.00 0.00 0.00 70 1014.3
20260905014051 86 0 0.0 1.0 0.00 0.00 0.00 71 1014.2
20260905013552 87 0 0.0 1.0 0.00 0.00 0.00 71 1014.0
20260905013100 87 0 0.0 0.0 0.00 0.00 0.00 72 1014.2
20260905012551 87 0 0.0 0.0 0.00 0.00 0.00 71 1014.2
20260905012051 87 0 0.0 0.0 0.00 0.00 0.00 71 1014.2
20260905011617 88 0 0.0 0.0 0.00 0.00 0.00 70 1014.1
20260905011050 88 0 0.0 0.0 0.00 0.00 0.00 69 1014.1
20260905010552 89 0 0.0 1.0 0.00 0.00 0.00 68 1014.1
20260905010100 90 0 0.0 1.0 0.00 0.00 0.00 66 1014.0
20260905005551 90 0 0.0 1.0 0.00 0.00 0.00 64 1014.0
20260905005051 91 0 0.0 1.0 0.00 0.00 0.00 61 1013.9
20260905004600 91 0 0.0 0.0 0.00 0.00 0.00 59 1014.0
20260905004051 92 0 0.0 1.0 0.00 0.00 0.00 57 1014.0
20260905003551 93 0 0.0 1.0 0.00 0.00 0.00 56 1013.9
20260905003104 93 0 0.0 1.0 0.00 0.00 0.00 55 1013.8
20260905002551 94 0 0.0 2.0 0.00 0.00 0.00 54 1013.8
20260905002052 94 62 0.0 2.0 0.00 0.00 0.00 54 1013.8
20260905001608 95 88 0.0 1.0 0.00 0.00 0.00 52 1013.6
20260905001051 95 0 0.0 1.0 0.00 0.00 0.00 52 1013.6
20260905000552 96 0 0.0 1.0 0.00 0.00 0.00 51 1013.6
20260904235551 97 89 0.0 2.0 0.00 0.00 0.00 50 1013.5
20260904235051 97 0 0.0 2.0 0.00 0.00 0.00 48 1013.3
20260904234601 98 0 0.0 2.0 0.00 0.00 0.00 47 1013.3
20260904234051 98 86 1.0 3.0 0.00 0.00 0.00 46 1013.3
20260904233554 99 272 1.0 3.0 0.00 0.00 0.00 45 1013.2
20260904233110 100 136 1.0 3.0 0.00 0.00 0.00 44 1013.1
20260904232551 101 0 1.0 3.0 0.00 0.00 0.00 43 1013.1
20260904232052 102 70 0.0 2.0 0.00 0.00 0.00 42 1013.1
20260904231602 102 92 1.0 2.0 0.00 0.00 0.00 42 1013.0
20260904231051 102 84 0.0 3.0 0.00 0.00 0.00 42 1013.0
20260904230551 102 86 1.0 4.0 0.00 0.00 0.00 42 1013.1
20260904230100 102 90 1.0 4.0 0.00 0.00 0.00 42 1013.2
20260904225551 102 20 1.0 4.0 0.00 0.00 0.00 42 1013.3
20260904225051 103 80 1.0 5.0 0.00 0.00 0.00 41 1013.2
20260904224602 103 20 1.0 5.0 0.00 0.00 0.00 42 1013.1
20260904224051 103 117 1.0 4.0 0.00 0.00 0.00 40 1013.2
20260904223552 103 91 1.0 4.0 0.00 0.00 0.00 41 1013.2
20260904223101 103 29 0.0 3.0 0.00 0.00 0.00 43 1013.3
20260904222552 102 117 1.0 4.0 0.00 0.00 0.00 44 1013.2
20260904222051 103 53 1.0 4.0 0.00 0.00 0.00 42 1013.2
20260904221605 103 122 1.0 4.0 0.00 0.00 0.00 45 1013.2
20260904221052 103 139 1.0 3.0 0.00 0.00 0.00 42 1013.2
20260904220551 104 91 1.0 3.0 0.00 0.00 0.00 43 1013.3
20260904220110 104 94 1.0 3.0 0.00 0.00 0.00 42 1013.2
20260904215550 103 88 1.0 3.0 0.00 0.00 0.00 43 1013.1
20260904215051 104 82 1.0 3.0 0.00 0.00 0.00 41 1013.2
20260904214559 103 35 1.0 3.0 0.00 0.00 0.00 41 1013.2
20260904214054 104 0 1.0 3.0 0.00 0.00 0.00 44 1013.2
20260904213551 103 0 2.0 4.0 0.00 0.00 0.00 45 1013.3
20260904213104 103 79 2.0 4.0 0.00 0.00 0.00 44 1013.5
20260904212555 103 111 1.0 3.0 0.00 0.00 0.00 45 1013.5
20260904212051 103 155 1.0 3.0 0.00 0.00 0.00 43 1013.5
20260904211559 103 0 1.0 4.0 0.00 0.00 0.00 45 1013.6
20260904211052 102 118 1.0 4.0 0.00 0.00 0.00 46 1013.7
20260904210551 101 258 0.0 4.0 0.00 0.00 0.00 45 1013.7
20260904210100 102 145 1.0 4.0 0.00 0.00 0.00 42 1013.9
20260904205555 102 113 1.0 4.0 0.00 0.00 0.00 46 1013.9
20260904205051 102 261 2.0 5.0 0.00 0.00 0.00 45 1014.0
20260904204603 103 132 2.0 5.0 0.00 0.00 0.00 43 1014.0
20260904204051 104 143 1.0 5.0 0.00 0.00 0.00 43 1014.0
20260904203551 104 95 0.0 4.0 0.00 0.00 0.00 47 1014.1
20260904203100 103 121 1.0 4.0 0.00 0.00 0.00 42 1014.2
20260904202551 103 161 1.0 3.0 0.00 0.00 0.00 44 1014.2
20260904202051 104 115 1.0 3.0 0.00 0.00 0.00 44 1014.3